This is the latest recevied weather packets stored in our database for station/object KC3QLX. If no packets are shown the sender has not sent any weather packets the latest 10 day(s).
| Time | Temp. | Humidity | Pressure | Rain* | Wind** | Luminosity | Snow |
|---|---|---|---|---|---|---|---|
| 1778101610 | 17.22° C | 99% | 1006.2 hPa | 0 mm | - | 186 W/m² | - |
| 1778101307 | 17.22° C | 99% | 1006.1 hPa | 0 mm | - | 154 W/m² | - |
| 1778101004 | 17.22° C | 99% | 1006.2 hPa | 0 mm | - | 243 W/m² | - |
| 1778100699 | 16.67° C | 99% | 1006.4 hPa | 0 mm | - | 145 W/m² | - |
| 1778100397 | 16.67° C | 99% | 1006.2 hPa | 0 mm | - | 221 W/m² | - |
| 1778100093 | 16.11° C | 99% | 1006.1 hPa | 0 mm | - | 115 W/m² | - |
| 1778099792 | 16.11° C | 99% | 1006.2 hPa | 0 mm | - | 72 W/m² | - |
| 1778099488 | 16.11° C | 99% | 1006.3 hPa | 0 mm | - | 76 W/m² | - |
| 1778099186 | 16.11° C | 99% | 1006.2 hPa | 0 mm | - | 76 W/m² | - |
| 1778098882 | 16.11° C | 99% | 1006.2 hPa | 0 mm | - | 94 W/m² | - |
| 1778098579 | 16.11° C | 99% | 1006.3 hPa | 0 mm | - | 40 W/m² | - |
| 1778098276 | 16.11° C | 99% | 1006.4 hPa | 0 mm | - | 74 W/m² | - |
| 1778097972 | 16.11° C | 99% | 1006.3 hPa | 0 mm | - | 110 W/m² | - |
| 1778097669 | 16.11° C | 99% | 1006.5 hPa | 0 mm | - | 86 W/m² | - |
| 1778097366 | 16.11° C | 99% | 1006.2 hPa | 0 mm | - | 104 W/m² | - |
| 1778097062 | 16.11° C | 99% | 1006.4 hPa | 0 mm | - | 95 W/m² | - |
| 1778096760 | 16.11° C | 99% | 1006.4 hPa | 0 mm | - | 78 W/m² | - |
| 1778096456 | 16.11° C | 99% | 1006.6 hPa | 0 mm | - | 84 W/m² | - |
| 1778096154 | 16.11° C | 99% | 1006.6 hPa | 0 mm | - | 83 W/m² | - |
| 1778095851 | 16.11° C | 99% | 1006.3 hPa | 0 mm | - | 64 W/m² | - |
| 1778095548 | 16.11° C | 99% | 1006.5 hPa | 0 mm | - | 97 W/m² | - |
| 1778095243 | 16.11° C | 99% | 1006.3 hPa | 0 mm | - | 83 W/m² | - |
| 1778094940 | 16.11° C | 99% | 1006.4 hPa | 0 mm | - | 117 W/m² | - |
| 1778094636 | 16.11° C | 99% | 1006.6 hPa | 0 mm | - | 121 W/m² | - |
| 1778094334 | 16.11° C | 99% | 1006.7 hPa | 0 mm | - | 140 W/m² | - |
* Rain latest hour (hover to see other rain measurements)
** Current wind speed in m/s (hover to see current wind gust speed)